Flag for China Weather past 2 weeks in Lanzhou, Gansu, China

Now
19 °F

Sunny.


Feels Like: 14 °F
Forecast: 9 / 29 °F
Wind: 3 mph from North

Location: Lanzhou / Zhongchuan

Current Time: Jan 29, 2015 at 12:41:20 PM

Latest Report: Jan 29, 2015 at 12:00 PM


Visibility: 10 mi

Pressure: 30.24 "Hg

Humidity: 49%

Dew point: 3 °F

Location of LanzhouLocation

Historic Weather in Lanzhou — Graph

°F

Lanzhou temperature yesterday

Maximum temperature yesterday: 27 °F (at 1:00 PM)
Minimum temperature yesterday: 14 °F (at 11:00 PM)
Average temperature yesterday: 20 °F

Past Weeks' High & Low Weather Summary

 TemperatureHumidityPressure
High46 °F (Jan 25, 4:00 PM)86% (Jan 17, 11:00 AM)30.39 "Hg (Jan 17, 11:00 AM)
Low1 °F (Jan 18, 6:00 AM)14% (Jan 21, 5:00 PM)29.71 "Hg (Jan 23, 3:00 PM)
Average22 °F50%30.13 "Hg
* Reported Jan 14 11:00 AM — Jan 29 11:00 AM, Lanzhou, Weather by CustomWeather, © 2014

Note: Actual official high and low records may vary slightly from our data, if they occured in-between our weather recording intervals... More about our weather records

Advertising

Lanzhou weather history for previous 24 hours

 ConditionsComfort  
Time TempWeatherWind HumidityBarometerVisibility
11:00 AM
Jan 29
16 °FSunny.1 mph53%30.27 "Hg10 mi
10:00 AM14 °FClear.No wind57%30.27 "Hg5 mi
9:00 AM9 °FClear.1 mph66%30.24 "Hg5 mi
8:00 AM7 °FClear.3 mph66%30.24 "Hg5 mi
7:00 AM7 °FClear.No wind72%30.21 "Hg10 mi
6:00 AM9 °FClear.No wind66%30.21 "Hg10 mi
5:00 AM7 °FClear.3 mph72%30.21 "Hg10 mi
4:00 AM7 °FClear.3 mph72%30.24 "Hg10 mi
3:00 AM10 °FClear.No wind61%30.27 "Hg10 mi
2:00 AM10 °FClear.1 mph61%30.24 "Hg10 mi
1:00 AM12 °FClear.1 mph57%30.24 "Hg10 mi
12:00 AM12 °FClear.3 mph57%30.24 "Hg10 mi
11:00 PM
Jan 28
14 °FPassing clouds.3 mph52%30.24 "HgN/A
10:00 PM16 °FClear.3 mph48%30.24 "Hg10 mi
9:00 PM16 °FPassing clouds.3 mph53%30.21 "HgN/A
8:00 PM18 °FClear.8 mph49%30.18 "Hg10 mi
7:00 PM19 °FPassing clouds.8 mph49%30.12 "HgN/A
6:00 PM21 °FPassing clouds.8 mph45%30.09 "HgN/A
5:00 PM25 °FPassing clouds.10 mph42%30.07 "HgN/A
4:00 PM27 °FPassing clouds.10 mph39%30.04 "HgN/A
3:00 PM27 °FPassing clouds.13 mph43%30.01 "HgN/A
2:00 PM27 °FPassing clouds.10 mph46%30.01 "HgN/A
1:00 PM27 °FPassing clouds.10 mph46%30.01 "HgN/A
12:00 PM25 °FPassing clouds.13 mph54%30.04 "HgN/A
Weather by CustomWeather, © 2014

See weather overviewHow to use our weather pages